Total_Precipitation_Accumulation
0.95 0.97 1.09 1.20 1.20 1.17 1.17 1.15 1.26 1.30 1.35 1.37 1.40 1.42 1.41 1.50 1.73 1.99 1.91 1.87 1.90 1.95 2.01 2.16 2.24 2.40 2.40 2.26 2.25 2.23 2.30 2.44 2.22 1.86 1.74 1.68 1.55 1.38 1.35 1.25 1.16 1.15 1.12
0.72 0.80 0.90 1.03 1.04 1.05 1.08 1.21 1.30 1.28 1.22 1.14 1.19 1.26 1.25 1.36 1.62 1.94 2.09 2.12 2.18 2.14 2.20 2.38 2.42 2.44 2.39 2.28 2.31 2.28 2.24 2.40 2.29 1.97 1.87 1.76 1.64 1.46 1.37 1.31 1.13 1.07 1.10
0.66 0.70 0.77 0.92 1.06 1.11 1.15 1.22 1.30 1.33 1.27 1.25 1.26 1.26 1.40 1.50 1.55 1.73 1.92 2.02 2.08 2.07 2.21 2.25 2.23 2.32 2.26 2.24 2.14 2.11 2.12 2.30 2.41 2.17 2.08 2.06 1.89 1.69 1.59 1.44 1.28 1.26 1.07
0.57 0.69 0.80 0.98 1.17 1.25 1.26 1.30 1.35 1.38 1.34 1.38 1.39 1.43 1.54 1.57 1.55 1.64 1.80 1.93 2.00 2.02 2.09 2.16 2.23 2.23 2.27 2.35 2.24 2.21 2.31 2.43 2.49 2.40 2.29 2.35 2.24 2.01 1.82 1.61 1.43 1.32 1.20
0.73 0.83 0.96 1.15 1.22 1.26 1.34 1.39 1.47 1.48 1.40 1.48 1.56 1.55 1.53 1.47 1.43 1.65 1.78 1.80 1.97 2.02 2.01 1.97 2.05 2.23 2.31 2.34 2.16 2.23 2.36 2.34 2.32 2.33 2.29 2.39 2.37 2.21 1.90 1.65 1.55 1.50 1.37
0.98 1.08 1.14 1.21 1.29 1.27 1.30 1.33 1.46 1.51 1.58 1.68 1.71 1.72 1.64 1.43 1.63 1.73 1.75 1.82 1.91 1.95 1.95 1.85 1.77 1.78 1.87 1.99 1.99 1.97 2.02 2.09 2.16 2.18 2.21 2.28 2.29 2.18 1.99 1.81 1.70 1.59 1.49
1.22 1.39 1.41 1.39 1.43 1.41 1.43 1.43 1.48 1.62 1.75 1.78 1.74 1.74 1.71 1.75 1.78 1.59 1.53 1.47 1.53 1.60 1.60 1.57 1.37 1.29 1.56 1.65 1.81 1.78 1.67 1.67 1.71 1.87 1.98 1.99 2.14 2.18 2.15 1.94 1.88 1.77 1.60
1.43 1.57 1.68 1.70 1.75 1.79 1.86 1.83 1.85 1.89 1.97 1.93 1.84 1.84 1.90 1.91 1.93 1.64 1.52 1.38 1.39 1.39 1.38 1.34 1.34 1.35 1.43 1.56 1.60 1.57 1.52 1.47 1.47 1.49 1.59 1.79 1.98 2.16 2.17 2.08 2.05 1.93 1.71
1.71 1.84 1.91 1.96 1.99 1.99 1.99 2.08 2.17 2.28 2.31 2.21 2.15 2.18 2.21 2.31 2.30 1.97 1.82 1.59 1.51 1.44 1.46 1.51 1.52 1.40 1.45 1.42 1.40 1.39 1.37 1.43 1.46 1.45 1.45 1.63 1.81 1.94 2.11 2.09 2.02 1.92 1.72
1.83 1.95 2.10 2.20 2.24 2.20 2.22 2.37 2.52 2.65 2.62 2.60 2.61 2.64 2.58 2.56 2.51 2.15 2.01 1.80 1.78 1.72 1.73 1.63 1.55 1.38 1.32 1.26 1.25 1.31 1.26 1.28 1.42 1.43 1.40 1.48 1.61 1.75 1.94 1.93 1.86 1.88 1.71
2.09 2.14 2.18 2.28 2.41 2.45 2.52 2.58 2.74 2.85 2.83 2.78 2.71 2.66 2.58 2.55 2.47 2.16 1.99 1.80 1.81 1.83 1.75 1.68 1.58 1.43 1.25 1.21 1.15 1.15 1.18 1.25 1.32 1.37 1.45 1.53 1.66 1.77 1.80 1.81 1.83 1.75 1.71
2.35 2.45 2.45 2.44 2.36 2.34 2.56 2.71 2.85 3.00 2.99 2.93 2.94 2.82 2.70 2.59 2.34 2.10 1.93 1.81 1.87 1.92 1.87 1.78 1.69 1.54 1.29 1.21 1.07 1.06 1.09 1.05 1.14 1.26 1.33 1.44 1.56 1.71 1.83 1.90 1.92 1.82 1.67
2.34 2.35 2.43 2.46 2.48 2.50 2.66 2.82 3.00 3.05 2.96 2.82 2.81 2.78 2.66 2.52 2.40 2.15 1.91 1.79 1.80 1.78 1.87 1.93 1.76 1.58 1.38 1.24 1.19 1.14 1.07 0.99 1.12 1.25 1.23 1.28 1.37 1.56 1.85 2.04 2.13 2.09 1.83
2.00 2.05 2.08 2.19 2.31 2.50 2.72 2.79 2.87 2.93 2.91 2.85 2.78 2.69 2.66 2.66 2.62 2.36 2.05 1.80 1.74 1.78 1.83 1.88 1.73 1.59 1.39 1.26 1.25 1.16 1.02 1.00 1.10 1.19 1.24 1.30 1.42 1.55 1.71 1.90 2.11 2.15 1.96
1.79 1.83 1.96 2.06 2.19 2.36 2.59 2.75 2.71 2.74 2.89 2.76 2.56 2.41 2.30 2.22 2.31 2.21 1.96 1.81 1.75 1.82 1.87 1.92 1.84 1.72 1.60 1.47 1.39 1.37 1.33 1.26 1.19 1.20 1.33 1.38 1.41 1.41 1.48 1.63 1.87 1.98 1.83
1.63 1.65 1.70 1.74 1.87 2.02 2.18 2.31 2.33 2.12 2.17 2.08 1.91 1.75 1.64 1.62 1.66 1.56 1.43 1.37 1.41 1.55 1.65 1.81 1.82 1.72 1.64 1.60 1.57 1.52 1.47 1.37 1.30 1.29 1.31 1.36 1.36 1.38 1.43 1.52 1.64 1.75 1.71
1.70 1.64 1.64 1.67 1.78 1.84 1.88 1.94 1.97 1.83 1.66 1.58 1.44 1.28 1.18 1.18 1.23 1.25 1.26 1.26 1.31 1.36 1.40 1.57 1.58 1.54 1.52 1.55 1.54 1.44 1.35 1.36 1.40 1.35 1.29 1.34 1.40 1.41 1.43 1.51 1.57 1.66 1.69
1.96 1.89 1.77 1.72 1.74 1.71 1.72 1.77 1.85 1.86 1.74 1.51 1.29 1.07 0.96 0.97 1.05 1.19 1.35 1.28 1.28 1.27 1.24 1.35 1.38 1.41 1.46 1.52 1.54 1.51 1.44 1.45 1.47 1.44 1.41 1.45 1.53 1.54 1.50 1.51 1.58 1.62 1.67
1.86 1.84 1.72 1.70 1.74 1.84 1.82 1.82 1.89 1.90 1.94 1.84 1.56 1.29 1.13 1.06 1.10 1.25 1.32 1.20 1.23 1.22 1.23 1.32 1.37 1.39 1.43 1.51 1.54 1.54 1.53 1.55 1.53 1.54 1.54 1.55 1.62 1.67 1.56 1.48 1.54 1.64 1.62
1.52 1.58 1.52 1.53 1.55 1.67 1.74 1.73 1.77 1.88 1.90 1.81 1.63 1.37 1.11 0.99 0.99 1.17 1.25 1.30 1.35 1.37 1.38 1.37 1.44 1.48 1.47 1.47 1.49 1.50 1.51 1.54 1.53 1.52 1.56 1.61 1.66 1.67 1.56 1.52 1.53 1.60 1.56
1.33 1.32 1.27 1.30 1.38 1.48 1.57 1.59 1.58 1.61 1.67 1.62 1.48 1.19 0.97 0.89 0.98 1.11 1.23 1.32 1.37 1.40 1.42 1.41 1.41 1.37 1.37 1.41 1.43 1.43 1.49 1.52 1.51 1.52 1.56 1.61 1.62 1.61 1.57 1.55 1.55 1.56 1.60
1.28 1.23 1.08 1.09 1.26 1.34 1.35 1.42 1.40 1.36 1.37 1.39 1.29 1.05 0.93 0.89 1.01 1.13 1.28 1.33 1.33 1.35 1.33 1.33 1.31 1.29 1.28 1.32 1.38 1.42 1.46 1.46 1.45 1.45 1.48 1.51 1.52 1.52 1.51 1.52 1.55 1.58 1.60
1.09 1.12 1.01 1.00 1.13 1.15 1.18 1.33 1.38 1.36 1.37 1.36 1.20 1.06 1.00 1.06 1.15 1.26 1.35 1.35 1.27 1.24 1.24 1.26 1.24 1.23 1.18 1.20 1.24 1.28 1.37 1.40 1.36 1.35 1.39 1.37 1.39 1.38 1.36 1.36 1.39 1.47 1.52
0.84 0.95 0.91 0.87 0.92 1.02 1.13 1.29 1.38 1.36 1.35 1.38 1.28 1.17 1.14 1.19 1.24 1.29 1.34 1.30 1.24 1.24 1.23 1.19 1.13 1.07 1.04 1.10 1.14 1.09 1.07 1.07 1.07 1.12 1.19 1.22 1.27 1.33 1.31 1.29 1.34 1.40 1.50
0.79 0.90 0.85 0.78 0.79 0.90 1.05 1.19 1.26 1.25 1.22 1.20 1.13 1.06 1.05 1.10 1.15 1.14 1.13 1.11 1.08 1.07 1.02 0.99 1.00 0.96 0.91 0.85 0.85 0.83 0.86 0.83 0.79 0.82 0.94 1.06 1.11 1.22 1.30 1.36 1.42 1.50 1.54
0.77 0.84 0.83 0.74 0.72 0.82 0.98 1.08 1.15 1.20 1.21 1.17 1.12 1.08 1.08 1.09 1.04 1.00 1.00 1.00 1.00 0.99 0.94 0.89 0.87 0.81 0.78 0.74 0.71 0.74 0.73 0.69 0.67 0.72 0.75 0.84 0.97 1.10 1.19 1.24 1.29 1.41 1.50